Time,TemperatureF,DewpointF,PressureIn,WindDirection,WindDirectionDegrees,WindSpeedMPH,WindSpeedGustMPH,Humidity,HourlyPrecipIn,Conditions,Clouds,dailyrainin,SoftwareType,DateUTC
2013-11-04 00:01:00,34.9,23.6,30.30,West,270,1.1,5.4,63,0.00,,,0.00,WUHU216HW,2013-11-04 05:01:00,
2013-11-04 00:06:00,34.9,23.6,30.30,WNW,293,2.5,4.5,63,0.00,,,0.00,WUHU216HW,2013-11-04 05:06:00,
2013-11-04 00:11:00,34.7,23.4,30.30,NW,315,3.1,4.3,63,0.00,,,0.00,WUHU216HW,2013-11-04 05:11:00,
2013-11-04 00:16:00,34.6,23.2,30.30,NW,315,2.5,4.5,63,0.00,,,0.00,WUHU216HW,2013-11-04 05:16:00,
2013-11-04 00:21:00,34.6,23.2,30.30,West,270,1.8,4.7,63,0.00,,,0.00,WUHU216HW,2013-11-04 05:21:00,
2013-11-04 00:26:00,34.4,23.4,30.30,WNW,293,1.6,4.7,64,0.00,,,0.00,WUHU216HW,2013-11-04 05:26:00,
2013-11-04 00:31:00,34.4,23.4,30.30,WNW,293,4.0,5.1,64,0.00,,,0.00,WUHU216HW,2013-11-04 05:31:00,
2013-11-04 00:36:00,34.4,23.4,30.30,WSW,248,3.4,5.1,64,0.00,,,0.00,WUHU216HW,2013-11-04 05:36:00,
2013-11-04 00:41:00,34.2,22.9,30.30,WNW,293,2.5,4.7,63,0.00,,,0.00,WUHU216HW,2013-11-04 05:41:00,
2013-11-04 00:46:00,34.4,23.0,30.30,NW,315,4.5,5.1,63,0.00,,,0.00,WUHU216HW,2013-11-04 05:46:00,
2013-11-04 00:51:00,34.4,23.0,30.30,ESE,113,0.7,6.3,63,0.00,,,0.00,WUHU216HW,2013-11-04 05:51:00,
2013-11-04 00:56:00,34.4,23.0,30.30,West,270,3.1,6.3,63,0.00,,,0.00,WUHU216HW,2013-11-04 05:56:00,
2013-11-04 01:01:00,34.2,22.9,30.30,North,0,3.1,3.8,63,0.00,,,0.00,WUHU216HW,2013-11-04 06:01:00,
2013-11-04 01:06:00,34.2,22.9,30.30,NW,315,2.5,5.8,63,0.00,,,0.00,WUHU216HW,2013-11-04 06:06:00,
2013-11-04 01:11:00,34.2,22.9,30.30,NW,315,1.8,5.8,63,0.00,,,0.00,WUHU216HW,2013-11-04 06:11:00,
2013-11-04 01:16:00,34.0,23.0,30.31,WNW,293,3.6,5.8,64,0.00,,,0.00,WUHU216HW,2013-11-04 06:16:00,
2013-11-04 01:21:00,34.0,23.0,30.31,West,270,2.0,3.8,64,0.00,,,0.00,WUHU216HW,2013-11-04 06:21:00,
2013-11-04 01:26:00,33.8,22.9,30.32,WNW,293,0.4,4.0,64,0.00,,,0.00,WUHU216HW,2013-11-04 06:26:00,
2013-11-04 01:31:00,33.8,23.2,30.32,WSW,248,2.9,5.1,65,0.00,,,0.00,WUHU216HW,2013-11-04 06:31:00,
2013-11-04 01:36:00,33.8,23.2,30.32,WNW,293,3.6,5.1,65,0.00,,,0.00,WUHU216HW,2013-11-04 06:36:00,
2013-11-04 01:41:00,33.7,23.0,30.32,WSW,248,4.5,4.5,65,0.00,,,0.00,WUHU216HW,2013-11-04 06:41:00,
2013-11-04 01:46:00,33.5,22.9,30.32,WNW,293,2.9,4.5,65,0.00,,,0.00,WUHU216HW,2013-11-04 06:46:00,
2013-11-04 01:51:00,33.5,22.9,30.32,SW,225,6.9,6.9,65,0.00,,,0.00,WUHU216HW,2013-11-04 06:51:00,
2013-11-04 01:56:00,33.5,23.2,30.32,WNW,293,2.7,6.9,66,0.00,,,0.00,WUHU216HW,2013-11-04 06:56:00,
2013-11-04 02:01:00,33.5,23.2,30.33,WNW,293,0.9,4.7,66,0.00,,,0.00,WUHU216HW,2013-11-04 07:01:00,
2013-11-04 02:06:00,33.3,23.1,30.33,NW,315,2.9,4.7,66,0.00,,,0.00,WUHU216HW,2013-11-04 07:06:00,
2013-11-04 02:11:00,33.3,23.1,30.33,SSW,203,4.3,6.3,66,0.00,,,0.00,WUHU216HW,2013-11-04 07:11:00,
2013-11-04 02:16:00,33.3,23.1,30.33,NW,315,2.9,6.3,66,0.00,,,0.00,WUHU216HW,2013-11-04 07:16:00,
2013-11-04 02:21:00,33.1,23.0,30.33,NNW,338,3.6,6.0,66,0.00,,,0.00,WUHU216HW,2013-11-04 07:21:00,
2013-11-04 02:26:00,33.1,23.3,30.33,West,270,4.7,6.0,67,0.00,,,0.00,WUHU216HW,2013-11-04 07:26:00,
2013-11-04 02:31:00,32.9,23.1,30.33,West,270,1.3,5.4,67,0.00,,,0.00,WUHU216HW,2013-11-04 07:31:00,
2013-11-04 02:36:00,32.9,23.1,30.33,NNW,338,1.8,5.4,67,0.00,,,0.00,WUHU216HW,2013-11-04 07:36:00,
2013-11-04 02:41:00,32.8,23.0,30.33,NW,315,3.4,6.5,67,0.00,,,0.00,WUHU216HW,2013-11-04 07:41:00,
2013-11-04 02:46:00,32.8,23.0,30.33,West,270,1.8,6.5,67,0.00,,,0.00,WUHU216HW,2013-11-04 07:46:00,
2013-11-04 02:51:00,32.8,23.0,30.34,WNW,293,1.1,4.3,67,0.00,,,0.00,WUHU216HW,2013-11-04 07:51:00,
2013-11-04 02:56:00,32.6,22.8,30.33,West,270,1.8,4.3,67,0.00,,,0.00,WUHU216HW,2013-11-04 07:56:00,
2013-11-04 03:01:00,32.6,23.1,30.34,NNE,23,1.8,3.6,68,0.00,,,0.00,WUHU216HW,2013-11-04 08:01:00,
2013-11-04 03:06:00,32.6,23.1,30.34,West,270,0.7,2.5,68,0.00,,,0.00,WUHU216HW,2013-11-04 08:06:00,
2013-11-04 03:11:00,32.4,23.1,30.34,WSW,248,1.6,2.5,68,0.00,,,0.00,WUHU216HW,2013-11-04 08:11:00,
2013-11-04 03:16:00,32.6,23.1,30.33,NW,315,3.1,8.5,68,0.00,,,0.00,WUHU216HW,2013-11-04 08:16:00,
2013-11-04 03:21:00,32.6,23.1,30.34,NW,315,0.7,8.5,68,0.00,,,0.00,WUHU216HW,2013-11-04 08:21:00,
2013-11-04 03:26:00,32.6,23.1,30.34,WNW,293,5.1,5.1,68,0.00,,,0.00,WUHU216HW,2013-11-04 08:26:00,
2013-11-04 03:31:00,32.6,23.1,30.34,NW,315,0.9,6.9,68,0.00,,,0.00,WUHU216HW,2013-11-04 08:31:00,
2013-11-04 03:36:00,32.4,23.1,30.35,WNW,293,4.9,6.9,68,0.00,,,0.00,WUHU216HW,2013-11-04 08:36:00,
2013-11-04 03:41:00,32.4,23.1,30.35,West,270,2.7,4.9,68,0.00,,,0.00,WUHU216HW,2013-11-04 08:41:00,
2013-11-04 03:46:00,32.4,23.1,30.35,WNW,293,3.1,4.5,68,0.00,,,0.00,WUHU216HW,2013-11-04 08:46:00,
2013-11-04 03:51:00,32.4,23.1,30.35,NW,315,1.1,5.4,68,0.00,,,0.00,WUHU216HW,2013-11-04 08:51:00,
2013-11-04 03:56:00,32.4,23.1,30.36,NW,315,1.8,5.4,68,0.00,,,0.00,WUHU216HW,2013-11-04 08:56:00,
2013-11-04 04:01:00,32.4,23.1,30.36,WNW,293,3.4,4.0,68,0.00,,,0.00,WUHU216HW,2013-11-04 09:01:00,
2013-11-04 04:06:00,32.4,23.1,30.36,West,270,3.4,4.5,68,0.00,,,0.00,WUHU216HW,2013-11-04 09:06:00,
2013-11-04 04:11:00,32.4,23.1,30.36,WNW,293,2.2,4.5,68,0.00,,,0.00,WUHU216HW,2013-11-04 09:11:00,
2013-11-04 04:16:00,32.4,23.1,30.36,NW,315,4.5,4.7,68,0.00,,,0.00,WUHU216HW,2013-11-04 09:16:00,
2013-11-04 04:21:00,32.4,23.1,30.36,West,270,1.8,6.7,68,0.00,,,0.00,WUHU216HW,2013-11-04 09:21:00,
2013-11-04 04:26:00,32.2,22.9,30.37,West,270,2.2,6.7,68,0.00,,,0.00,WUHU216HW,2013-11-04 09:26:00,
2013-11-04 04:31:00,32.4,23.1,30.37,WNW,293,4.7,4.7,68,0.00,,,0.00,WUHU216HW,2013-11-04 09:31:00,
2013-11-04 04:36:00,32.4,23.1,30.38,North,0,0.9,9.2,68,0.00,,,0.00,WUHU216HW,2013-11-04 09:36:00,
2013-11-04 04:41:00,32.2,22.9,30.38,NW,315,3.4,9.2,68,0.00,,,0.00,WUHU216HW,2013-11-04 09:41:00,
2013-11-04 04:46:00,32.2,22.9,30.38,SSW,203,5.1,6.5,68,0.00,,,0.00,WUHU216HW,2013-11-04 09:46:00,
2013-11-04 04:51:00,32.2,22.9,30.38,West,270,2.9,6.5,68,0.00,,,0.00,WUHU216HW,2013-11-04 09:51:00,
2013-11-04 04:56:00,32.0,22.7,30.38,NNW,338,3.4,3.4,68,0.00,,,0.00,WUHU216HW,2013-11-04 09:56:00,
2013-11-04 05:01:00,32.0,22.3,30.38,NW,315,2.2,4.5,67,0.00,,,0.00,WUHU216HW,2013-11-04 10:01:00,
2013-11-04 05:06:00,32.0,22.3,30.38,West,270,0.7,4.5,67,0.00,,,0.00,WUHU216HW,2013-11-04 10:06:00,
2013-11-04 05:11:00,31.9,22.5,30.38,WNW,293,3.1,3.4,68,0.00,,,0.00,WUHU216HW,2013-11-04 10:11:00,
2013-11-04 05:16:00,31.9,22.5,30.38,NW,315,0.4,5.1,68,0.00,,,0.00,WUHU216HW,2013-11-04 10:16:00,
2013-11-04 05:21:00,31.7,22.3,30.38,NW,315,2.0,5.4,68,0.00,,,0.00,WUHU216HW,2013-11-04 10:21:00,
2013-11-04 05:26:00,31.7,22.3,30.39,NW,315,4.0,5.4,68,0.00,,,0.00,WUHU216HW,2013-11-04 10:26:00,
2013-11-04 05:31:00,31.7,22.3,30.39,West,270,0.2,5.8,68,0.00,,,0.00,WUHU216HW,2013-11-04 10:31:00,
2013-11-04 05:36:00,31.5,22.1,30.39,SW,225,0.0,5.8,68,0.00,,,0.00,WUHU216HW,2013-11-04 10:36:00,
2013-11-04 05:41:00,31.3,22.0,30.40,WNW,293,2.5,3.4,68,0.00,,,0.00,WUHU216HW,2013-11-04 10:41:00,
2013-11-04 05:46:00,31.3,22.0,30.40,WNW,293,0.7,5.4,68,0.00,,,0.00,WUHU216HW,2013-11-04 10:46:00,
2013-11-04 05:51:00,31.3,22.0,30.40,NNE,23,0.2,5.4,68,0.00,,,0.00,WUHU216HW,2013-11-04 10:51:00,
2013-11-04 05:56:00,31.3,22.3,30.40,North,0,1.1,4.9,69,0.00,,,0.00,WUHU216HW,2013-11-04 10:56:00,
2013-11-04 06:01:00,31.1,22.1,30.40,WSW,248,1.6,4.0,69,0.00,,,0.00,WUHU216HW,2013-11-04 11:01:00,
2013-11-04 06:06:00,31.1,22.1,30.41,NW,315,4.0,4.0,69,0.00,,,0.00,WUHU216HW,2013-11-04 11:06:00,
2013-11-04 06:11:00,31.0,22.3,30.41,West,270,2.5,5.8,70,0.00,,,0.00,WUHU216HW,2013-11-04 11:11:00,
2013-11-04 06:14:00,31.0,22.0,30.40,SSW,203,1.8,5.8,69,0.00,,,0.00,WUHU216HW,2013-11-04 11:14:00,
2013-11-04 06:19:00,31.1,22.1,30.41,WNW,293,1.8,4.5,69,0.00,,,0.00,WUHU216HW,2013-11-04 11:19:00,
2013-11-04 06:22:00,31.0,22.0,30.41,NW,315,0.2,4.5,69,0.00,,,0.00,WUHU216HW,2013-11-04 11:22:00,
2013-11-04 06:27:00,31.0,22.0,30.41,West,270,3.1,4.7,69,0.00,,,0.00,WUHU216HW,2013-11-04 11:27:00,
2013-11-04 06:32:00,31.0,22.0,30.41,West,270,5.8,5.8,69,0.00,,,0.00,WUHU216HW,2013-11-04 11:32:00,
2013-11-04 06:37:00,31.1,22.1,30.41,West,270,1.3,5.8,69,0.00,,,0.00,WUHU216HW,2013-11-04 11:37:00,
2013-11-04 06:42:00,31.0,22.0,30.41,North,0,5.4,5.8,69,0.00,,,0.00,WUHU216HW,2013-11-04 11:42:00,
2013-11-04 06:47:00,31.1,22.1,30.41,WSW,248,1.8,5.4,69,0.00,,,0.00,WUHU216HW,2013-11-04 11:47:00,
2013-11-04 06:52:00,31.3,22.3,30.42,WNW,293,3.1,5.4,69,0.00,,,0.00,WUHU216HW,2013-11-04 11:52:00,
2013-11-04 06:57:00,31.3,22.3,30.42,NW,315,2.9,5.4,69,0.00,,,0.00,WUHU216HW,2013-11-04 11:57:00,
2013-11-04 07:02:00,31.5,22.1,30.42,WNW,293,1.6,5.4,68,0.00,,,0.00,WUHU216HW,2013-11-04 12:02:00,
2013-11-04 07:07:00,32.0,22.3,30.42,SW,225,9.2,9.2,67,0.00,,,0.00,WUHU216HW,2013-11-04 12:07:00,
2013-11-04 07:12:00,32.4,22.7,30.42,WNW,293,2.9,9.2,67,0.00,,,0.00,WUHU216HW,2013-11-04 12:12:00,
2013-11-04 07:17:00,32.6,22.8,30.42,NW,315,3.1,6.9,67,0.00,,,0.00,WUHU216HW,2013-11-04 12:17:00,
2013-11-04 07:22:00,33.1,23.3,30.43,WSW,248,3.4,5.6,67,0.00,,,0.00,WUHU216HW,2013-11-04 12:22:00,
2013-11-04 07:27:00,33.7,23.4,30.43,West,270,3.6,5.6,66,0.00,,,0.00,WUHU216HW,2013-11-04 12:27:00,
2013-11-04 07:32:00,34.2,23.9,30.43,NNE,23,1.1,5.1,66,0.00,,,0.00,WUHU216HW,2013-11-04 12:32:00,
2013-11-04 07:37:00,34.6,23.6,30.43,West,270,2.7,5.1,64,0.00,,,0.00,WUHU216HW,2013-11-04 12:37:00,
2013-11-04 07:42:00,35.1,24.1,30.43,NNW,338,1.1,6.5,64,0.00,,,0.00,WUHU216HW,2013-11-04 12:42:00,
2013-11-04 07:47:00,35.6,23.9,30.43,NW,315,1.8,6.5,62,0.00,,,0.00,WUHU216HW,2013-11-04 12:47:00,
2013-11-04 07:52:00,36.0,24.3,30.43,WSW,248,1.8,5.4,62,0.00,,,0.00,WUHU216HW,2013-11-04 12:52:00,
2013-11-04 07:57:00,36.5,24.0,30.44,WNW,293,5.1,5.4,60,0.00,,,0.00,WUHU216HW,2013-11-04 12:57:00,
2013-11-04 08:02:00,37.1,24.5,30.44,NW,315,6.5,6.5,60,0.00,,,0.00,WUHU216HW,2013-11-04 13:02:00,
2013-11-04 08:07:00,37.6,25.0,30.44,WSW,248,1.8,7.6,60,0.00,,,0.00,WUHU216HW,2013-11-04 13:07:00,
2013-11-04 08:12:00,38.0,24.9,30.44,NW,315,2.5,7.6,59,0.00,,,0.00,WUHU216HW,2013-11-04 13:12:00,
2013-11-04 08:17:00,38.7,25.6,30.44,NNE,23,2.2,4.9,59,0.00,,,0.00,WUHU216HW,2013-11-04 13:17:00,
2013-11-04 08:22:00,39.1,25.5,30.44,SSW,203,4.0,6.9,58,0.00,,,0.00,WUHU216HW,2013-11-04 13:22:00,
2013-11-04 08:27:00,39.6,25.9,30.44,SW,225,2.9,6.9,58,0.00,,,0.00,WUHU216HW,2013-11-04 13:27:00,
2013-11-04 08:32:00,40.3,26.2,30.44,West,270,3.1,3.8,57,0.00,,,0.00,WUHU216HW,2013-11-04 13:32:00,
2013-11-04 08:37:00,40.3,25.7,30.44,WSW,248,4.3,5.4,56,0.00,,,0.00,WUHU216HW,2013-11-04 13:37:00,
2013-11-04 08:42:00,40.7,26.1,30.45,WSW,248,4.0,5.4,56,0.00,,,0.00,WUHU216HW,2013-11-04 13:42:00,
2013-11-04 08:47:00,41.0,26.0,30.45,WSW,248,1.8,5.1,55,0.00,,,0.00,WUHU216HW,2013-11-04 13:47:00,
2013-11-04 08:52:00,41.4,26.4,30.45,SW,225,2.7,5.1,55,0.00,,,0.00,WUHU216HW,2013-11-04 13:52:00,
2013-11-04 08:57:00,42.1,27.0,30.45,SE,135,2.5,4.0,55,0.00,,,0.00,WUHU216HW,2013-11-04 13:57:00,
2013-11-04 09:02:00,42.3,26.7,30.45,North,0,2.9,5.1,54,0.00,,,0.00,WUHU216HW,2013-11-04 14:02:00,
2013-11-04 09:07:00,42.8,27.3,30.46,North,0,1.8,5.1,54,0.00,,,0.00,WUHU216HW,2013-11-04 14:07:00,
2013-11-04 09:12:00,43.2,27.6,30.46,SW,225,0.7,5.1,54,0.00,,,0.00,WUHU216HW,2013-11-04 14:12:00,
2013-11-04 09:17:00,43.9,27.9,30.45,ENE,68,1.8,5.1,53,0.00,,,0.00,WUHU216HW,2013-11-04 14:17:00,
2013-11-04 09:22:00,43.4,27.4,30.45,NE,45,1.1,4.9,53,0.00,,,0.00,WUHU216HW,2013-11-04 14:22:00,
2013-11-04 09:27:00,44.3,28.6,30.45,ESE,113,0.9,4.9,54,0.00,,,0.00,WUHU216HW,2013-11-04 14:27:00,
2013-11-04 09:32:00,44.6,28.5,30.45,SE,135,2.5,6.0,53,0.00,,,0.00,WUHU216HW,2013-11-04 14:32:00,
2013-11-04 09:37:00,45.0,28.9,30.45,West,270,4.7,6.7,53,0.00,,,0.00,WUHU216HW,2013-11-04 14:37:00,
2013-11-04 09:42:00,46.1,29.8,30.45,NNW,338,3.4,6.7,53,0.00,,,0.00,WUHU216HW,2013-11-04 14:42:00,
2013-11-04 09:47:00,45.7,30.0,30.45,WSW,248,1.8,5.1,54,0.00,,,0.00,WUHU216HW,2013-11-04 14:47:00,
2013-11-04 09:52:00,46.3,30.4,30.46,SSE,158,2.2,5.1,54,0.00,,,0.00,WUHU216HW,2013-11-04 14:52:00,
2013-11-04 09:57:00,46.8,30.5,30.45,WNW,293,4.5,4.7,53,0.00,,,0.00,WUHU216HW,2013-11-04 14:57:00,
2013-11-04 10:02:00,47.0,30.7,30.45,NNE,23,3.4,4.7,53,0.00,,,0.00,WUHU216HW,2013-11-04 15:02:00,
2013-11-04 10:07:00,47.0,31.2,30.45,SE,135,1.8,7.4,54,0.00,,,0.00,WUHU216HW,2013-11-04 15:07:00,
2013-11-04 10:12:00,47.0,31.2,30.46,NE,45,3.1,7.4,54,0.00,,,0.00,WUHU216HW,2013-11-04 15:12:00,
2013-11-04 10:17:00,47.5,32.0,30.45,WNW,293,2.5,6.3,55,0.00,,,0.00,WUHU216HW,2013-11-04 15:17:00,
2013-11-04 10:22:00,47.9,31.1,30.45,WNW,293,1.8,5.8,52,0.00,,,0.00,WUHU216HW,2013-11-04 15:22:00,
2013-11-04 10:27:00,47.7,31.3,30.45,West,270,6.0,6.5,53,0.00,,,0.00,WUHU216HW,2013-11-04 15:27:00,
2013-11-04 10:32:00,48.1,31.7,30.45,SE,135,5.8,6.5,53,0.00,,,0.00,WUHU216HW,2013-11-04 15:32:00,
2013-11-04 10:37:00,48.2,31.9,30.45,ENE,68,3.8,6.0,53,0.00,,,0.00,WUHU216HW,2013-11-04 15:37:00,
2013-11-04 10:42:00,48.2,32.8,30.45,NE,45,2.2,8.5,55,0.00,,,0.00,WUHU216HW,2013-11-04 15:42:00,
2013-11-04 10:47:00,48.4,32.5,30.45,SSW,203,4.7,8.5,54,0.00,,,0.00,WUHU216HW,2013-11-04 15:47:00,
2013-11-04 10:52:00,49.7,33.2,30.45,NNE,23,5.1,5.1,53,0.00,,,0.00,WUHU216HW,2013-11-04 15:52:00,
2013-11-04 10:57:00,48.6,33.1,30.46,SE,135,3.8,7.4,55,0.00,,,0.00,WUHU216HW,2013-11-04 15:57:00,
2013-11-04 11:02:00,47.5,32.0,30.46,SE,135,4.7,7.4,55,0.00,,,0.00,WUHU216HW,2013-11-04 16:02:00,
2013-11-04 11:07:00,46.4,31.5,30.46,NNW,338,6.3,6.3,56,0.00,,,0.00,WUHU216HW,2013-11-04 16:07:00,
2013-11-04 11:12:00,46.1,31.1,30.46,NNE,23,5.6,7.2,56,0.00,,,0.00,WUHU216HW,2013-11-04 16:12:00,
2013-11-04 11:17:00,46.3,31.8,30.45,SE,135,3.1,7.2,57,0.00,,,0.00,WUHU216HW,2013-11-04 16:17:00,
2013-11-04 11:22:00,46.4,32.4,30.45,WSW,248,1.1,5.4,58,0.00,,,0.00,WUHU216HW,2013-11-04 16:22:00,
2013-11-04 11:27:00,46.4,32.0,30.46,West,270,2.9,5.4,57,0.00,,,0.00,WUHU216HW,2013-11-04 16:27:00,
2013-11-04 11:32:00,46.3,31.8,30.46,NW,315,1.6,6.3,57,0.00,,,0.00,WUHU216HW,2013-11-04 16:32:00,
2013-11-04 11:37:00,46.4,32.4,30.46,NW,315,4.7,6.3,58,0.00,,,0.00,WUHU216HW,2013-11-04 16:37:00,
2013-11-04 11:42:00,46.4,32.0,30.45,SW,225,2.5,7.6,57,0.00,,,0.00,WUHU216HW,2013-11-04 16:42:00,
2013-11-04 11:47:00,46.1,32.0,30.46,ENE,68,1.1,7.6,58,0.00,,,0.00,WUHU216HW,2013-11-04 16:47:00,
2013-11-04 11:52:00,45.7,31.8,30.46,ENE,68,1.8,4.0,58,0.00,,,0.00,WUHU216HW,2013-11-04 16:52:00,
2013-11-04 11:57:00,45.9,32.0,30.46,East,90,3.8,4.0,58,0.00,,,0.00,WUHU216HW,2013-11-04 16:57:00,
2013-11-04 12:02:00,45.9,32.0,30.46,SE,135,2.9,4.5,58,0.00,,,0.00,WUHU216HW,2013-11-04 17:02:00,
2013-11-04 12:07:00,46.3,32.2,30.46,ESE,113,2.5,4.5,58,0.00,,,0.00,WUHU216HW,2013-11-04 17:07:00,
2013-11-04 12:12:00,46.3,32.2,30.46,North,0,2.5,4.0,58,0.00,,,0.00,WUHU216HW,2013-11-04 17:12:00,
2013-11-04 12:17:00,46.3,32.2,30.45,SW,225,1.8,4.0,58,0.00,,,0.00,WUHU216HW,2013-11-04 17:17:00,
2013-11-04 12:22:00,46.6,32.1,30.45,ESE,113,4.0,4.0,57,0.00,,,0.00,WUHU216HW,2013-11-04 17:22:00,
2013-11-04 12:27:00,46.1,32.0,30.45,ESE,113,3.8,4.3,58,0.00,,,0.00,WUHU216HW,2013-11-04 17:27:00,
2013-11-04 12:32:00,45.9,32.0,30.45,NNE,23,4.7,4.7,58,0.00,,,0.00,WUHU216HW,2013-11-04 17:32:00,
2013-11-04 12:37:00,45.9,32.0,30.45,NW,315,1.8,4.7,58,0.00,,,0.00,WUHU216HW,2013-11-04 17:37:00,
2013-11-04 12:42:00,45.7,31.8,30.45,WSW,248,1.8,4.0,58,0.00,,,0.00,WUHU216HW,2013-11-04 17:42:00,
2013-11-04 12:47:00,45.7,32.2,30.45,SSE,158,4.3,4.3,59,0.00,,,0.00,WUHU216HW,2013-11-04 17:47:00,
2013-11-04 12:52:00,46.1,32.0,30.45,NE,45,4.5,4.5,58,0.00,,,0.00,WUHU216HW,2013-11-04 17:52:00,
2013-11-04 12:57:00,46.4,32.4,30.45,SSW,203,0.9,6.9,58,0.00,,,0.00,WUHU216HW,2013-11-04 17:57:00,
2013-11-04 13:02:00,46.8,32.8,30.45,NE,45,2.9,6.9,58,0.00,,,0.00,WUHU216HW,2013-11-04 18:02:00,
2013-11-04 13:07:00,47.0,32.5,30.45,SE,135,2.5,4.9,57,0.00,,,0.00,WUHU216HW,2013-11-04 18:07:00,
2013-11-04 13:12:00,46.1,32.0,30.45,North,0,4.7,4.9,58,0.00,,,0.00,WUHU216HW,2013-11-04 18:12:00,
2013-11-04 13:17:00,46.3,32.2,30.45,West,270,1.1,5.1,58,0.00,,,0.00,WUHU216HW,2013-11-04 18:17:00,
2013-11-04 13:22:00,46.1,31.6,30.45,NE,45,4.0,5.1,57,0.00,,,0.00,WUHU216HW,2013-11-04 18:22:00,
2013-11-04 13:27:00,45.9,32.0,30.45,SSE,158,4.0,4.7,58,0.00,,,0.00,WUHU216HW,2013-11-04 18:27:00,
2013-11-04 13:32:00,45.9,32.0,30.45,North,0,2.5,4.7,58,0.00,,,0.00,WUHU216HW,2013-11-04 18:32:00,
2013-11-04 13:37:00,45.9,32.0,30.44,South,180,2.5,4.7,58,0.00,,,0.00,WUHU216HW,2013-11-04 18:37:00,
2013-11-04 13:42:00,46.1,32.0,30.44,NE,45,7.4,7.4,58,0.00,,,0.00,WUHU216HW,2013-11-04 18:42:00,
2013-11-04 13:47:00,45.9,32.0,30.44,NNE,23,1.6,7.4,58,0.00,,,0.00,WUHU216HW,2013-11-04 18:47:00,
2013-11-04 13:52:00,46.1,32.5,30.44,East,90,3.8,4.5,59,0.00,,,0.00,WUHU216HW,2013-11-04 18:52:00,
2013-11-04 13:57:00,46.3,32.2,30.44,ESE,113,4.0,5.4,58,0.00,,,0.00,WUHU216HW,2013-11-04 18:57:00,
2013-11-04 14:02:00,46.3,32.7,30.44,ESE,113,3.4,5.4,59,0.00,,,0.00,WUHU216HW,2013-11-04 19:02:00,
2013-11-04 14:07:00,46.4,32.9,30.45,NE,45,5.4,5.4,59,0.00,,,0.00,WUHU216HW,2013-11-04 19:07:00,
2013-11-04 14:12:00,46.4,32.4,30.45,North,0,1.1,5.4,58,0.00,,,0.00,WUHU216HW,2013-11-04 19:12:00,
2013-11-04 14:17:00,46.4,32.4,30.45,NNW,338,5.6,5.6,58,0.00,,,0.00,WUHU216HW,2013-11-04 19:17:00,
2013-11-04 14:22:00,46.3,32.2,30.45,North,0,3.4,5.6,58,0.00,,,0.00,WUHU216HW,2013-11-04 19:22:00,
2013-11-04 14:27:00,46.1,32.0,30.45,NNE,23,0.4,4.0,58,0.00,,,0.00,WUHU216HW,2013-11-04 19:27:00,
2013-11-04 14:32:00,46.1,32.0,30.45,ESE,113,2.2,5.4,58,0.00,,,0.00,WUHU216HW,2013-11-04 19:32:00,
2013-11-04 14:37:00,46.3,32.7,30.45,ENE,68,2.0,5.4,59,0.00,,,0.00,WUHU216HW,2013-11-04 19:37:00,
2013-11-04 14:42:00,46.1,32.5,30.45,NNE,23,1.6,3.8,59,0.00,,,0.00,WUHU216HW,2013-11-04 19:42:00,
2013-11-04 14:47:00,46.1,32.5,30.45,North,0,2.5,4.3,59,0.00,,,0.00,WUHU216HW,2013-11-04 19:47:00,
2013-11-04 14:52:00,45.9,32.4,30.45,ESE,113,4.5,4.7,59,0.00,,,0.00,WUHU216HW,2013-11-04 19:52:00,
2013-11-04 14:57:00,45.9,32.4,30.45,NW,315,1.8,4.7,59,0.00,,,0.00,WUHU216HW,2013-11-04 19:57:00,
2013-11-04 15:02:00,45.7,32.2,30.45,North,0,0.9,4.7,59,0.00,,,0.00,WUHU216HW,2013-11-04 20:02:00,
2013-11-04 15:07:00,45.9,32.4,30.45,NNE,23,2.5,3.4,59,0.00,,,0.00,WUHU216HW,2013-11-04 20:07:00,
2013-11-04 15:12:00,45.9,32.9,30.45,NNE,23,2.5,4.7,60,0.00,,,0.00,WUHU216HW,2013-11-04 20:12:00,
2013-11-04 15:17:00,45.9,32.9,30.45,ESE,113,0.7,4.7,60,0.00,,,0.00,WUHU216HW,2013-11-04 20:17:00,
2013-11-04 15:22:00,45.9,33.2,30.45,WNW,293,1.8,3.6,61,0.00,,,0.00,WUHU216HW,2013-11-04 20:22:00,
2013-11-04 15:27:00,45.9,32.9,30.45,ENE,68,1.1,2.5,60,0.00,,,0.00,WUHU216HW,2013-11-04 20:27:00,
2013-11-04 15:32:00,45.7,33.0,30.46,SW,225,0.9,3.6,61,0.00,,,0.00,WUHU216HW,2013-11-04 20:32:00,
2013-11-04 15:37:00,45.5,32.9,30.46,NW,315,2.5,3.6,61,0.00,,,0.00,WUHU216HW,2013-11-04 20:37:00,
2013-11-04 15:42:00,45.5,32.9,30.45,ESE,113,1.1,2.9,61,0.00,,,0.00,WUHU216HW,2013-11-04 20:42:00,
2013-11-04 15:47:00,45.5,33.3,30.45,NNE,23,2.0,2.9,62,0.00,,,0.00,WUHU216HW,2013-11-04 20:47:00,
2013-11-04 15:52:00,45.5,32.9,30.45,NNW,338,2.2,2.9,61,0.00,,,0.00,WUHU216HW,2013-11-04 20:52:00,
2013-11-04 15:57:00,45.2,33.0,30.46,SSW,203,2.2,2.9,62,0.00,,,0.00,WUHU216HW,2013-11-04 20:57:00,
2013-11-04 16:02:00,45.0,32.8,30.46,North,0,1.8,2.5,62,0.00,,,0.00,WUHU216HW,2013-11-04 21:02:00,
2013-11-04 16:07:00,45.0,32.8,30.46,NNE,23,2.2,2.5,62,0.00,,,0.00,WUHU216HW,2013-11-04 21:07:00,
2013-11-04 16:12:00,44.6,32.9,30.46,South,180,0.4,3.4,63,0.00,,,0.00,WUHU216HW,2013-11-04 21:12:00,
2013-11-04 16:17:00,44.5,32.7,30.46,NE,45,2.2,3.4,63,0.00,,,0.00,WUHU216HW,2013-11-04 21:17:00,
2013-11-04 16:22:00,44.3,32.5,30.46,NW,315,0.4,3.4,63,0.00,,,0.00,WUHU216HW,2013-11-04 21:22:00,
2013-11-04 16:27:00,44.1,32.3,30.47,NW,315,0.9,2.9,63,0.00,,,0.00,WUHU216HW,2013-11-04 21:27:00,
2013-11-04 16:32:00,43.9,32.5,30.47,West,270,0.4,2.9,64,0.00,,,0.00,WUHU216HW,2013-11-04 21:32:00,
2013-11-04 16:37:00,43.6,32.6,30.46,NNE,23,1.6,1.8,65,0.00,,,0.00,WUHU216HW,2013-11-04 21:37:00,
2013-11-04 16:42:00,43.4,32.4,30.47,SSE,158,1.3,1.8,65,0.00,,,0.00,WUHU216HW,2013-11-04 21:42:00,
2013-11-04 16:47:00,43.2,32.6,30.46,WSW,248,0.9,2.5,66,0.00,,,0.00,WUHU216HW,2013-11-04 21:47:00,
2013-11-04 16:52:00,42.8,32.2,30.46,WSW,248,1.8,2.5,66,0.00,,,0.00,WUHU216HW,2013-11-04 21:52:00,
2013-11-04 16:57:00,42.8,32.2,30.47,NNW,338,0.9,1.8,66,0.00,,,0.00,WUHU216HW,2013-11-04 21:57:00,
2013-11-04 17:02:00,42.5,32.3,30.48,West,270,2.0,2.0,67,0.00,,,0.00,WUHU216HW,2013-11-04 22:02:00,
2013-11-04 17:07:00,42.5,32.7,30.48,WNW,293,0.2,2.9,68,0.00,,,0.00,WUHU216HW,2013-11-04 22:07:00,
2013-11-04 17:12:00,42.3,32.5,30.48,NW,315,1.1,2.9,68,0.00,,,0.00,WUHU216HW,2013-11-04 22:12:00,
2013-11-04 17:17:00,42.3,32.5,30.47,NW,315,3.1,3.1,68,0.00,,,0.00,WUHU216HW,2013-11-04 22:17:00,
2013-11-04 17:22:00,42.1,32.3,30.48,SW,225,0.2,3.1,68,0.00,,,0.00,WUHU216HW,2013-11-04 22:22:00,
2013-11-04 17:27:00,42.1,32.3,30.48,WNW,293,1.3,1.8,68,0.00,,,0.00,WUHU216HW,2013-11-04 22:27:00,
2013-11-04 17:32:00,42.1,32.3,30.48,WSW,248,1.8,1.8,68,0.00,,,0.00,WUHU216HW,2013-11-04 22:32:00,
2013-11-04 17:37:00,41.9,31.8,30.48,SW,225,1.3,1.8,67,0.00,,,0.00,WUHU216HW,2013-11-04 22:37:00,
2013-11-04 17:42:00,41.8,31.6,30.48,NW,315,0.4,4.0,67,0.00,,,0.00,WUHU216HW,2013-11-04 22:42:00,
2013-11-04 17:47:00,41.6,31.8,30.48,WNW,293,1.3,4.0,68,0.00,,,0.00,WUHU216HW,2013-11-04 22:47:00,
2013-11-04 17:52:00,41.4,31.7,30.48,WNW,293,1.6,2.2,68,0.00,,,0.00,WUHU216HW,2013-11-04 22:52:00,
2013-11-04 17:57:00,41.4,31.7,30.48,NNW,338,1.3,2.2,68,0.00,,,0.00,WUHU216HW,2013-11-04 22:57:00,
2013-11-04 18:02:00,41.0,31.3,30.48,West,270,1.1,1.3,68,0.00,,,0.00,WUHU216HW,2013-11-04 23:02:00,
2013-11-04 18:07:00,40.9,31.5,30.48,NNW,338,0.2,1.8,69,0.00,,,0.00,WUHU216HW,2013-11-04 23:07:00,
2013-11-04 18:12:00,40.7,31.3,30.48,NW,315,0.0,1.8,69,0.00,,,0.00,WUHU216HW,2013-11-04 23:12:00,
2013-11-04 18:17:00,40.7,31.7,30.48,WSW,248,0.0,2.0,70,0.00,,,0.00,WUHU216HW,2013-11-04 23:17:00,
2013-11-04 18:22:00,40.7,31.7,30.48,NW,315,0.9,2.0,70,0.00,,,0.00,WUHU216HW,2013-11-04 23:22:00,
2013-11-04 18:27:00,40.7,31.7,30.48,West,270,0.7,3.4,70,0.00,,,0.00,WUHU216HW,2013-11-04 23:27:00,
2013-11-04 18:32:00,40.7,31.7,30.48,West,270,0.4,3.4,70,0.00,,,0.00,WUHU216HW,2013-11-04 23:32:00,
2013-11-04 18:37:00,40.7,31.7,30.48,WSW,248,0.4,1.8,70,0.00,,,0.00,WUHU216HW,2013-11-04 23:37:00,
2013-11-04 18:42:00,40.5,31.5,30.48,WNW,293,1.8,1.8,70,0.00,,,0.00,WUHU216HW,2013-11-04 23:42:00,
2013-11-04 18:47:00,40.5,31.5,30.48,WSW,248,2.0,2.0,70,0.00,,,0.00,WUHU216HW,2013-11-04 23:47:00,
2013-11-04 18:52:00,40.3,31.3,30.48,NW,315,1.8,2.0,70,0.00,,,0.00,WUHU216HW,2013-11-04 23:52:00,
2013-11-04 18:57:00,40.1,31.1,30.48,SSW,203,0.7,2.2,70,0.00,,,0.00,WUHU216HW,2013-11-04 23:57:00,
2013-11-04 19:02:00,40.0,31.0,30.47,North,0,0.7,2.2,70,0.00,,,0.00,WUHU216HW,2013-11-05 00:02:00,
2013-11-04 19:07:00,39.8,31.2,30.47,WNW,293,1.8,1.8,71,0.00,,,0.00,WUHU216HW,2013-11-05 00:07:00,
2013-11-04 19:12:00,39.6,31.0,30.47,WNW,293,0.2,1.8,71,0.00,,,0.00,WUHU216HW,2013-11-05 00:12:00,
2013-11-04 19:17:00,39.4,30.8,30.46,SW,225,0.2,1.1,71,0.00,,,0.00,WUHU216HW,2013-11-05 00:17:00,
2013-11-04 19:22:00,39.2,30.6,30.46,SSE,158,0.4,1.1,71,0.00,,,0.00,WUHU216HW,2013-11-05 00:22:00,
2013-11-04 19:27:00,39.2,30.6,30.46,WNW,293,0.9,1.8,71,0.00,,,0.00,WUHU216HW,2013-11-05 00:27:00,
2013-11-04 19:32:00,39.2,31.0,30.46,SW,225,0.4,1.8,72,0.00,,,0.00,WUHU216HW,2013-11-05 00:32:00,
2013-11-04 19:37:00,39.1,30.8,30.46,WNW,293,0.4,1.8,72,0.00,,,0.00,WUHU216HW,2013-11-05 00:37:00,
2013-11-04 19:42:00,39.1,31.2,30.46,NE,45,0.0,1.8,73,0.00,,,0.00,WUHU216HW,2013-11-05 00:42:00,
2013-11-04 19:47:00,39.1,30.8,30.46,West,270,0.4,1.1,72,0.00,,,0.00,WUHU216HW,2013-11-05 00:47:00,
2013-11-04 19:52:00,38.9,31.0,30.47,WNW,293,0.0,0.9,73,0.00,,,0.00,WUHU216HW,2013-11-05 00:52:00,
2013-11-04 19:57:00,38.5,30.6,30.47,NNW,338,0.7,1.1,73,0.00,,,0.00,WUHU216HW,2013-11-05 00:57:00,
2013-11-04 20:02:00,38.5,30.6,30.46,NNW,338,0.4,1.6,73,0.00,,,0.00,WUHU216HW,2013-11-05 01:02:00,
2013-11-04 20:07:00,38.3,30.4,30.46,North,0,0.0,1.6,73,0.00,,,0.00,WUHU216HW,2013-11-05 01:07:00,
2013-11-04 20:12:00,38.2,30.2,30.46,North,0,0.0,0.7,73,0.00,,,0.00,WUHU216HW,2013-11-05 01:12:00,
2013-11-04 20:17:00,38.0,30.1,30.46,WNW,293,0.0,0.4,73,0.00,,,0.00,WUHU216HW,2013-11-05 01:17:00,
2013-11-04 20:22:00,37.8,30.2,30.46,WNW,293,0.4,0.4,74,0.00,,,0.00,WUHU216HW,2013-11-05 01:22:00,
2013-11-04 20:27:00,37.6,30.1,30.46,WNW,293,0.4,0.7,74,0.00,,,0.00,WUHU216HW,2013-11-05 01:27:00,
2013-11-04 20:32:00,37.4,30.2,30.46,WNW,293,0.4,0.7,75,0.00,,,0.00,WUHU216HW,2013-11-05 01:32:00,
2013-11-04 20:37:00,37.3,30.1,30.46,West,270,0.9,0.9,75,0.00,,,0.00,WUHU216HW,2013-11-05 01:37:00,
2013-11-04 20:42:00,37.1,29.9,30.47,West,270,0.0,0.9,75,0.00,,,0.00,WUHU216HW,2013-11-05 01:42:00,
2013-11-04 20:47:00,37.1,30.3,30.47,WSW,248,0.0,0.7,76,0.00,,,0.00,WUHU216HW,2013-11-05 01:47:00,
2013-11-04 20:52:00,37.1,30.5,30.47,West,270,1.1,1.1,77,0.00,,,0.00,WUHU216HW,2013-11-05 01:52:00,
2013-11-04 20:57:00,37.3,30.7,30.47,WNW,293,1.6,1.6,77,0.00,,,0.00,WUHU216HW,2013-11-05 01:57:00,
2013-11-04 21:02:00,37.6,30.8,30.48,WNW,293,1.3,1.6,76,0.00,,,0.00,WUHU216HW,2013-11-05 02:02:00,
2013-11-04 21:07:00,37.8,31.2,30.48,West,270,1.1,1.8,77,0.00,,,0.00,WUHU216HW,2013-11-05 02:07:00,
2013-11-04 21:12:00,37.8,31.2,30.48,WNW,293,0.0,1.8,77,0.00,,,0.00,WUHU216HW,2013-11-05 02:12:00,
2013-11-04 21:17:00,37.8,31.2,30.48,NW,315,1.1,2.7,77,0.00,,,0.00,WUHU216HW,2013-11-05 02:17:00,
2013-11-04 21:22:00,37.8,31.2,30.48,WSW,248,1.1,2.7,77,0.00,,,0.00,WUHU216HW,2013-11-05 02:22:00,
2013-11-04 21:27:00,37.8,30.9,30.48,WNW,293,0.7,1.3,76,0.00,,,0.00,WUHU216HW,2013-11-05 02:27:00,
2013-11-04 21:32:00,37.8,31.2,30.48,West,270,0.9,0.9,77,0.00,,,0.00,WUHU216HW,2013-11-05 02:32:00,
2013-11-04 21:37:00,37.8,31.2,30.48,WNW,293,0.2,0.9,77,0.00,,,0.00,WUHU216HW,2013-11-05 02:37:00,
2013-11-04 21:42:00,37.8,31.6,30.49,WNW,293,0.7,1.1,78,0.00,,,0.00,WUHU216HW,2013-11-05 02:42:00,
2013-11-04 21:47:00,37.8,31.2,30.48,WSW,248,1.6,1.6,77,0.00,,,0.00,WUHU216HW,2013-11-05 02:47:00,
2013-11-04 21:52:00,37.8,31.6,30.49,WSW,248,0.0,1.6,78,0.00,,,0.00,WUHU216HW,2013-11-05 02:52:00,
2013-11-04 21:57:00,37.8,31.6,30.49,WNW,293,1.6,1.8,78,0.00,,,0.00,WUHU216HW,2013-11-05 02:57:00,
2013-11-04 22:02:00,37.8,31.6,30.48,WNW,293,1.6,3.1,78,0.00,,,0.00,WUHU216HW,2013-11-05 03:02:00,
2013-11-04 22:07:00,37.8,31.6,30.48,NW,315,0.0,3.4,78,0.00,,,0.00,WUHU216HW,2013-11-05 03:07:00,
2013-11-04 22:12:00,37.8,31.6,30.49,West,270,0.4,3.4,78,0.00,,,0.00,WUHU216HW,2013-11-05 03:12:00,
2013-11-04 22:17:00,37.8,31.6,30.48,West,270,0.0,1.3,78,0.00,,,0.00,WUHU216HW,2013-11-05 03:17:00,
2013-11-04 22:22:00,37.6,31.4,30.49,West,270,0.4,1.3,78,0.00,,,0.00,WUHU216HW,2013-11-05 03:22:00,
2013-11-04 22:27:00,37.6,31.4,30.48,West,270,0.0,0.9,78,0.00,,,0.00,WUHU216HW,2013-11-05 03:27:00,
2013-11-04 22:32:00,37.6,31.7,30.48,NW,315,1.8,1.8,79,0.00,,,0.00,WUHU216HW,2013-11-05 03:32:00,
2013-11-04 22:37:00,37.6,31.7,30.48,West,270,0.7,1.8,79,0.00,,,0.00,WUHU216HW,2013-11-05 03:37:00,
2013-11-04 22:42:00,37.6,31.7,30.48,North,0,0.0,1.8,79,0.00,,,0.00,WUHU216HW,2013-11-05 03:42:00,
2013-11-04 22:47:00,37.4,31.5,30.48,SW,225,0.0,1.8,79,0.00,,,0.00,WUHU216HW,2013-11-05 03:47:00,
2013-11-04 22:52:00,37.3,31.3,30.48,SW,225,0.2,0.4,79,0.00,,,0.00,WUHU216HW,2013-11-05 03:52:00,
2013-11-04 22:57:00,37.1,31.1,30.48,SW,225,0.0,0.4,79,0.00,,,0.00,WUHU216HW,2013-11-05 03:57:00,
2013-11-04 23:02:00,37.1,31.1,30.47,SSE,158,0.0,0.7,79,0.00,,,0.00,WUHU216HW,2013-11-05 04:02:00,
2013-11-04 23:07:00,37.1,31.1,30.48,SW,225,0.0,1.1,79,0.00,,,0.00,WUHU216HW,2013-11-05 04:07:00,
2013-11-04 23:12:00,36.9,31.0,30.48,SW,225,0.4,1.1,79,0.00,,,0.00,WUHU216HW,2013-11-05 04:12:00,
2013-11-04 23:17:00,36.7,30.8,30.48,SW,225,0.2,0.7,79,0.00,,,0.00,WUHU216HW,2013-11-05 04:17:00,
2013-11-04 23:22:00,36.5,30.6,30.48,SW,225,0.0,1.1,79,0.00,,,0.00,WUHU216HW,2013-11-05 04:22:00,
2013-11-04 23:27:00,36.4,30.8,30.48,WSW,248,0.0,1.1,80,0.00,,,0.00,WUHU216HW,2013-11-05 04:27:00,
2013-11-04 23:32:00,36.2,30.6,30.48,WSW,248,0.2,1.1,80,0.00,,,0.00,WUHU216HW,2013-11-05 04:32:00,
2013-11-04 23:37:00,36.0,30.4,30.48,WSW,248,0.0,1.1,80,0.00,,,0.00,WUHU216HW,2013-11-05 04:37:00,
2013-11-04 23:42:00,36.0,30.7,30.47,WSW,248,0.0,0.7,81,0.00,,,0.00,WUHU216HW,2013-11-05 04:42:00,
2013-11-04 23:47:00,35.8,30.2,30.48,WSW,248,0.0,0.7,80,0.00,,,0.00,WUHU216HW,2013-11-05 04:47:00,
2013-11-04 23:52:00,35.6,30.1,30.48,WSW,248,0.0,0.4,80,0.00,,,0.00,WUHU216HW,2013-11-05 04:52:00,
2013-11-04 23:57:00,35.6,30.3,30.48,WSW,248,0.4,1.1,81,0.00,,,0.00,WUHU216HW,2013-11-05 04:57:00,